LXGB

Details ICAO LXGB (GIB)
Name Gibraltar
Region Gibralter
Timezone Europe/Gibraltar (UTC+2.0)
Plans Departing 1490
Arriving 1985
Stats Elevation 15 ft / 5 m (AMSL)
Location 36.151200° -5.349850°
Runways 1
Magnetic Variation 0.942° W
Sunrise 2019-07-16 05:17:15 UTC / 2019-07-16 07:17:15 Local
Sunset 2019-07-16 19:39:45 UTC / 2019-07-16 21:39:45 Local
Advertisement - Login to hide

Runways

ID Width Length Bearing (true/mag) Surface Threshold Overrun Markings Lighting
09 148 ft / 45 m 5,836 ft / 1,779 m 87.52° / 88.46° ASPHALT 476 ft / 145 m 0 ft / 0 m UK-PREC-APP EDGE THRESHOLD REIL-OMNI
27 148 ft / 45 m 5,836 ft / 1,779 m 267.53° / 268.48° ASPHALT 354 ft / 108 m 0 ft / 0 m UK-PREC-APP EDGE THRESHOLD REIL-OMNI

Map

Weather


0- 5 10 15 20 25 30 35+ Temperature / °C

Clouds and Precipitation
Forecast for 2019-07-16 18:00 UTC. Updated 5 hours ago

Ground ~20,000 ft ~40,000 ft Winds

METAR

LXGB 161950Z AUTO 05005KT 8000 // NCD 22/19 Q1013

TAF

Not found

Frequencies

Tower 131.20 MHz Gibraltar Tower
Tower 240.57 MHz Gibraltar Tower
Approach 122.80 MHz Gibraltar Approach
Approach 130.40 MHz Gibraltar Radar
Approach 235.05 MHz Gibraltar Radar
Approach 264.87 MHz Gibraltar Approach
Warning: Do not use this data for real-world aviation or navigation. No guarantee of current accuracy is given.